Location: Seattle
(47.6064°N, 122.3308°W)
Time: 19:26:04
(UTC-07:00)

AO-7 - Pass Details

Date: 22 March 2023
Orbit: 1439 x 1459 km, 101.9° (Epoch: 07 June)

Event Time Altitude Azimuth Distance (km) Brightness Sun altitude
Rises 03:54:30 0° 33° (NNE) 4,569 ? -30.8°
Reaches altitude 10° 04:00:02 10° 62° (ENE) 3,579 ? -30.1°
Maximum altitude 04:02:53 12° 83° (E) 3,420 ? -29.7°
Drops below altitude 10° 04:05:43 10° 103° (ESE) 3,566 ? -29.3°
Sets 04:11:08 0° 133° (SE) 4,533 ? -28.6°
